Погода Чапаево

Погода Чапаево : погода сейчас, прогноз погоды и архив. Всё, что Вы хотите узнать о погоде Чапаево!

Поиск расширенной информации на нашем сайте:

Другие новости

Новости СМИ2

Главная страница сайта

Новости сайта

02.10.2013

Напоминаем, что на нашем новом сайте вы можете получить высокодетализированные прогнозы погоды по пунктам России, СНГ и мира (включающие важные для авиации метеовеличины, такие как направление и скорость ветра, видимость, явления погоды, количество и форма облачности, нижняя и верхняя граница облачности), а также ознакомиться с разнообразными материалами по авиационной метеорологии и подборкой полезных ссылок на эту тему.

Сайт Метеоцентр.Азия посвящён разработке технологий оптимизации авиаметеорологического обслуживания, включая проектирование и перспективное создание нескольких автоматизированных авиаметеорологических систем:
- система выпуска высокодетальных прогностических карт явлений погоды для нижнего воздушного пространства по России и ближнему зарубежью;
- система верификации прогнозов TAF (выпускаемых синоптиками официальных АМСГ РФ и ближнего зарубежья) и AUTOTAF (выпускаемых сайтом Метеоцентр.Азия) - выявление ошибок, онлайн-сопоставление с фактической погодой METAR, автоматическое внесение коррективов в прогнозы при резком отклонении фактической погоды от прогноза, подсчёт оправдываемости прогнозов по элементам и в целом;
- система обработки, анализа и отображения авиаметеорологической информации для применения провайдерами метеорологической информации.

Рекомендуем: Капсулы яблочный уксус - по низким ценам!

Погода Чапаево - сегодня

Время (UTC), дата Ветер
(°,м/с) 
Видим.   Явления Облачность Т
(°С)
Тd
(°С)
f(%) Тe
(°С)
Pmin
(гПа)
dP
(гПа)
Po
(мм)
O2
(г/м3)
Тmin Tmax R s Состояние
почвы
03 25.06.17 360 (С) 20000 м    8/0 верхняя 
[Cs]
+13.3 +10 80 +14  1006.8  2.6  754  288           
06 25.06.17 340 (С) 20000 м    6/0 верхняя 
[Cs]
+15.8 +7.8 59 +17  1008.5  1.7  755  286  +13       
09 25.06.17 340 (С) 20000 м    6/6 600 м 
[Cu med, cong]
+21.8 +3.1 29 +22  1009.5  756  282           
12 25.06.17 340 (С) 20000 м    6/6 600 м 
[Cu med, cong]
+22.6 +2.9 27 +23  1009.8  0.3  756  281           
15 25.06.17 тихо ()   20000 м    3/3 600 м 
[Cu hum]
+22 +3.1 29 +22  1010.8  757  282    +22.7       
18 25.06.17 тихо ()   н/о    4/0 средняя 
[Ac lent]
+17.6 +12.6 72 +22  1012.3  1.5  758  284    +22.7       
21 25.06.17 360 (С) н/о    ясно 
+13.8 +10.7 82 +16  1013.4  1.1  759  289           
00 26.06.17 тихо ()   н/о    ясно 
+11.6 +9.6 88 +12  1014.3  0.9  759  292           
03 26.06.17 050 (СВ) 20000 м    4/0 средняя 
[Ac trans]
+15.9 +11.4 75 +20  1014.8  0.5  760  287           
06 26.06.17 180 (Ю) 20000 м    6/6 600 м кучево-дожд., средняя 
[Cb calv|Ac cuf]
+23.4 +8 37 +23  1015.4  0.6  760  281  +11.6         
09 26.06.17 320 (СЗ) 20000 м    6/6 600 м 
[Cu med, cong]
+25.6 +7.4 31 +26  1014.6  -0.8  760  279           
12 26.06.17 020 (С) 20000 м    3/3 600 м 
[Cu hum]
+26.9 +7.9 30 +27  1014.1  -0.4  759  277           
15 26.06.17 070 (В) 20000 м    3/3 600 м 
[Cu hum]
+27.9 +7.3 27 +28  1013.7  -0.4  759  276    +28       
18 26.06.17 090 (В) н/о    3/0 верхняя 
[Ci fib]
+21.5 +7.3 40 +22  1014.3  0.5  759  282    +28       
21 26.06.17 090 (В) н/о    3/0 верхняя 
[Ci fib]
+18.8 +8.3 50 +20  1014.3  759  285           
00 27.06.17 тихо ()   н/о    1/0 верхняя 
[Ci fib]
+15.8 +9 64 +16  1014.6  0.3  760  288           
03 27.06.17 090 (В) 20000 м    ясно 
+19.8 +10.1 54 +22  1015  0.4  760  284           
06 27.06.17 270 (З) 20000 м    1/0 верхняя 
[Ci fib]
+28.5 +10.2 32 +30  1014.7  -0.2  760  275  +15.8         
09 27.06.17 270 (З) 20000 м    6/6 600 м 
[Cu med, cong]
+31.3 +8.9 25 +31  1014  -0.7  759  273           
12 27.06.17 290 (З) 20000 м    6/6 600 м кучево-дожд., средняя 
[Cb calv|Ac cuf]
+32.1 +8.6 23 +32  1012.8  -1.2  758  272           
15 27.06.17 290 (З) 20000 м    6/6 600 м кучево-дожд., средняя 
[Cb calv|Ac cuf]
+30.3 +9.7 28 +31  1012.1  -0.7  758  273    +32.2       
18 27.06.17 320 (СЗ) н/о    4/4 600 м кучево-дожд. 
[Cb calv]
+22.8 +9.2 42 +23  1013  0.8  758  280    +32.2       
21 27.06.17 320 (СЗ) н/о    3/0 верхняя 
[Ci fib]
+20.8 +10 50 +22  1013.2  0.2  759  282           
00 28.06.17 тихо ()   н/о    3/0 верхняя 
[Ci fib]
+16.6 +9.7 64 +17  1013.4  0.2  759  286           
03 28.06.17 320 (СЗ) 20000 м    3/0 верхняя 
[Ci fib]
+20.6 +10.7 53 +23  1013.5  0.1  751  279           
Время (UTC), дата Ветер
(°,м/с) 
Видим.   Явления Облачность Т
(°С)
Тd
(°С)
f(%) Тe
(°С)
Pmin
(гПа)
dP
(гПа)
Po
(мм)
O2
(г/м3)
Тmin Tmax R s Состояние
почвы

Для получения пояснительной информации подведите курсор к названию столбца.

ПОГОДА Чапаево - архив

Всё, что Вы хотите узнать о погоде Чапаево - удобно и подробно!

Выберите нужную дату (начиная с 1 января 2015* года) и нажмите кнопку "Найти".
Будут отображены архивные сводки погоды по пункту Чапаево, начиная с указанной даты.


Отображать данные в формате CSV (для использования в таблицах Excel)


Внимание! Наш архив погоды предназначен исключительно для личного некоммерческого использования в познавательных целях. Если Вам необходимы официальные справки о состоянии погоды (для производственных, юридических, коммерческих и т.п. целей), обращайтесь в органы Росгидромета.

*Примечание: данная дата относится к архиву по метеостанциям СССР (Россия, СНГ, Балтия).
Архив по метеостанциям Зарубежной Европы и Азии (кроме Китая) хранится 10 дней, по другим регионам земного шара (Китай, Африка, Америка, Австралия, Океания) - 1 день.

Чапаево - район местоположения метеостанции


Название, широта, долгота, высота метеостанции:
Чапаево 50.2°ш. 51.2°д. 17 м над ур. моря [Казахстан]

Дополнительная информация

В oтличие oт бoльшинства пoгoдных сайтoв мы публикуем пoдрoбную метеoинфoрмацию в детальнoм прoфессиoнальнoм фoрмате.

Характеристики температуры и влажнoсти вoздуха измеряются на высoте 2 м в тени вдали oт зданий и деревьев.
Скoрoсть ветра измеряется на высoте 10 м (на урoвне рoста челoвека скoрoсть ветра ниже в 1.5-2 раза). Если метеoстанция нахoдится в гoрoде или в лесу, тo скoрoсть ветра занижена на 2-4 м/с пo сравнению с oткрытым местoм. Скoрoсть ветра над акватoриями крупных рек и oзёр, а также на вершинах хoлмoв на 2-5 м/с выше, чем в oбычных услoвиях.
Атмoсфернoе давление в разных тoчках местнoсти мoжет значительнo oтличаться oт давления на метеoстанции, в зависимoсти oт услoвий рельефа (при пoдъёме на 10 м давление пoнижается примернo на 1 мм рт.ст.).